[[{"header":{"parameterUnit":"m.s-1","parameterCategory":1,"la1":30.2991,"la2":30.254,"lo1":-89.0895,"lo2":-89.0444,"dy":0.0017,"dx":0.0017,"nx":28,"ny":28,"refTime":"2025-11-21T09:00:00:Z","depth":0,"parameterNumber":2,"parameterNumberName":"U-component_of_WINDS"},"data":[0,0,0,0,0,0,0,0,0,0,0,0,0,0,0,0,0,0,0,0,0,0,0,0,0,0,0,0,0,0,0,0,0,0,0,0,0,0,0,0,0,0,0,0,0,0,0,0,0,0,0,0,0,0,0,0,0,0,-2.7003,-2.7003,0,-2.7013,-2.7013,-2.7013,-2.6978,-2.6977,-2.6976,-2.6975,-2.6985,-2.6986,-2.6987,0,0,0,0,0,0,0,0,0,0,0,0,0,-2.6955,-2.6956,-2.7003,-2.7003,-2.7004,-2.7013,-2.7013,-2.7013,-2.6978,-2.6977,-2.6976,-2.6975,-2.6985,-2.6986,-2.6987,0,0,0,0,0,0,0,0,0,0,0,0,0,-2.6971,-2.6956,-2.7003,-2.6987,-2.6986,-2.7013,-2.7013,-2.7013,-2.6979,-2.6977,-2.6976,-2.6974,-2.6984,-2.6986,-2.6988,-2.703,0,0,-2.6993,-2.6994,0,0,0,0,0,0,0,0,-2.697,-2.6973,-2.699,-2.6989,-2.6987,-2.6993,-2.6999,-2.7019,-2.6979,-2.6982,-2.6975,-2.6973,-2.6989,-2.699,-2.6995,-2.7031,-2.7031,-2.6993,-2.6995,-2.6995,-2.6996,0,0,0,0,0,0,0,-2.6969,-2.6973,-2.7007,-2.699,-2.6988,-2.698,-2.698,-2.7003,-2.6994,-2.6981,-2.6979,-2.698,-2.6988,-2.6994,-2.6995,-2.7031,-2.6993,-2.6995,-2.6996,-2.6997,-2.71,-2.7102,0,0,0,0,0,0,-2.697,-2.6972,-2.7007,-2.7007,-2.6975,-2.6982,-2.6982,-2.6992,-2.6993,-2.6992,-2.6982,-2.6979,-2.6991,-2.6993,-2.6996,-2.7044,-2.6995,-2.6997,-2.6998,-2.7099,-2.7101,-2.7102,0,0,0,0,0,0,-2.6969,-2.6974,-2.7006,-2.6989,-2.6992,-2.6984,-2.6996,-2.6993,-2.6999,-2.6994,-2.6992,-2.6989,-2.699,-2.6993,-2.7021,-2.7044,-2.6998,-2.7,-2.7097,-2.7099,-2.7102,-2.7142,0,0,0,0,0,0,-2.6968,-2.6974,-2.699,-2.699,-2.6993,-2.7032,-2.6997,-2.6995,-2.7002,-2.6999,-2.7,-2.6999,-2.6989,-2.7019,-2.7023,-2.7046,-2.7001,-2.7095,-2.7098,-2.7101,-2.7139,-2.7146,-2.7152,0,0,0,0,0,-2.6967,-2.7001,-2.6991,-2.6995,-2.7013,-2.7034,-2.7036,-2.7024,-2.7005,-2.702,-2.7017,-2.6999,-2.7041,-2.7022,-2.7027,-2.705,-2.7093,-2.7097,-2.7101,-2.7136,-2.7144,-2.7151,0,0,0,0,0,0,-2.7004,-2.7001,-2.6989,-2.7025,-2.703,-2.7028,-2.7047,-2.7033,-2.7044,-2.704,-2.7024,-2.7025,-2.7056,-2.7056,-2.7035,-2.709,-2.7064,-2.7069,-2.7089,-2.7097,-2.7103,-2.7102,-2.7002,0,0,0,0,0,-2.7017,-2.7034,-2.703,-2.7061,-2.7064,-2.7056,-2.7064,-2.7054,-2.7059,-2.7061,-2.7059,-2.7064,-2.7078,-2.7088,-2.7101,-2.7139,-2.7138,-2.7157,-2.7164,-2.7169,-2.7173,-2.7192,-2.72,-2.7115,-2.7115,-2.7114,0,0,-2.7043,-2.7043,-2.7054,-2.7069,-2.7072,-2.7089,-2.7058,-2.7078,-2.709,-2.7064,-2.709,-2.7089,-2.7094,-2.7127,-2.7142,-2.7128,-2.7196,-2.7174,-2.7178,-2.7179,-2.7197,-2.7205,-2.7212,-2.7117,-2.7117,-2.7116,0,0,-2.7098,-2.7101,-2.7126,-2.713,-2.7134,-2.7128,-2.7134,-2.7135,-2.7133,-2.7159,-2.7139,-2.7154,-2.7179,-2.7183,-2.7188,-2.7245,-2.7229,-2.725,-2.7283,-2.7302,-2.7308,-2.7314,-2.7333,-2.734,-2.7254,-2.7254,-2.7254,0,-2.713,-2.7155,-2.7142,-2.7163,-2.7169,-2.7146,-2.7172,-2.7176,-2.7184,-2.7189,-2.7174,-2.7205,-2.7206,-2.7239,-2.7253,-2.7259,-2.7265,-2.7249,-2.7309,-2.7314,-2.7319,-2.7337,-2.7345,-2.7257,-2.7256,-2.7256,-2.7256,0,-2.7193,-2.7211,-2.7231,-2.7239,-2.7248,-2.7272,-2.7262,-2.7273,-2.7262,-2.7258,-2.7284,-2.7285,-2.7298,-2.7305,-2.7295,-2.7337,-2.7328,-2.7311,-2.7284,-2.733,-2.7347,-2.7353,-2.726,-2.7259,-2.7258,-2.7258,0,0,-2.7271,-2.7272,-2.728,-2.7282,-2.7286,-2.7299,-2.7321,-2.7333,-2.7342,-2.7349,-2.7366,-2.7388,-2.7372,-2.7378,-2.7369,-2.7385,-2.7429,-2.7366,-2.7366,-2.7376,-2.7473,-2.7484,-2.7492,-2.7419,-2.742,-2.7421,-2.7472,0,-2.7325,-2.7362,-2.7351,-2.7388,-2.7404,-2.7383,-2.7402,-2.7406,-2.7402,-2.7415,-2.7411,-2.7426,-2.7405,-2.7408,-2.7424,-2.742,-2.7447,-2.7416,-2.7434,-2.7434,-2.7431,-2.7501,-2.7514,-2.7562,-2.7478,-2.7479,-2.748,0,-2.7392,-2.74,-2.744,-2.7439,-2.7445,-2.7463,-2.7472,-2.7485,-2.7489,-2.7485,-2.7492,-2.7478,-2.75,-2.7474,-2.7502,-2.7481,-2.7488,-2.7487,-2.7489,-2.7489,-2.7459,-2.7501,-2.7577,-2.7583,-2.749,-2.749,-2.7489,0,-2.7443,-2.7465,-2.7491,-2.7494,-2.7495,-2.7508,-2.7508,-2.7511,-2.7518,-2.7527,-2.7531,-2.7542,-2.7548,-2.7557,-2.7547,-2.7529,-2.7577,-2.755,-2.7573,-2.7573,-2.7583,-2.7582,-2.7659,-2.759,-2.759,-2.759,-2.759,0,-2.7503,-2.7527,-2.7514,-2.753,-2.7556,-2.7543,-2.757,-2.7568,-2.757,-2.7585,-2.7568,-2.7582,-2.7569,-2.7582,-2.7574,-2.7598,-2.7602,-2.7599,-2.7596,-2.7599,-2.7599,-2.7602,-2.7598,-2.7592,-2.7591,-2.7591,-2.7591,0,-2.7564,-2.7557,-2.7583,-2.7581,-2.7581,-2.7601,-2.7599,-2.7614,-2.7609,-2.7628,-2.7632,-2.7624,-2.7639,-2.763,-2.7645,-2.764,-2.7671,-2.7665,-2.7669,-2.7667,-2.769,-2.7687,-2.777,-2.7779,-2.7706,-2.7707,-2.7708,0,-2.7602,-2.762,-2.762,-2.7629,-2.7631,-2.7645,-2.7652,-2.764,-2.7649,-2.7654,-2.7668,-2.7681,-2.769,-2.7714,-2.771,-2.7721,-2.7714,-2.7742,-2.7715,-2.7717,-2.7712,-2.771,-2.7712,-2.7747,-2.7748,-2.7748,-2.7749,0,-2.767,-2.7665,-2.7676,-2.7686,-2.7695,-2.7702,-2.7708,-2.7716,-2.7704,-2.7714,-2.7728,-2.7736,-2.7751,-2.7763,-2.7772,-2.7773,-2.7759,-2.7758,-2.7763,-2.7766,-2.7767,-2.7765,-2.7682,-2.7755,-2.7755,-2.7754,-2.7754,-2.7754,-2.7719,-2.7734,-2.7736,-2.7749,-2.7752,-2.7758,-2.777,-2.7767,-2.7779,-2.779,-2.7782,-2.7799,-2.7802,-2.7813,-2.7815,-2.7828,-2.7816,-2.7825,-2.7827,-2.7829,-2.7831,-2.7767,-2.783,-2.7829,-2.7829,-2.7829,-2.7829,0,-2.7784,-2.7785,-2.7797,-2.7805,-2.7815,-2.7801,-2.7807,-2.7816,-2.783,-2.7834,-2.7844,-2.786,-2.7872,-2.7869,-2.788,-2.789,-2.7884,-2.7893,-2.7891,-2.7892,-2.7842,-2.7835,-2.7898,-2.7898,-2.7898,-2.7898,-2.7898,-2.7898,-2.7819,-2.7843,-2.7838,-2.7863,-2.7863,-2.7879,-2.7883,-2.7888,-2.7891,-2.7909,-2.7919,-2.7917,-2.7918,-2.7928,-2.7939,-2.7937,-2.7941,-2.7953,-2.7949,-2.7902,-2.7895,-2.7889,-2.7882,-2.7954,-2.7955,-2.7998,-2.7998,-2.7999]},{"header":{"parameterUnit":"m.s-1","parameterCategory":1,"la1":30.2991,"la2":30.254,"lo1":-89.0895,"lo2":-89.0444,"dy":0.0017,"dx":0.0017,"nx":28,"ny":28,"refTime":"2025-11-21T09:00:00:Z","depth":0,"parameterNumber":3,"parameterNumberName":"V-component_of_WINDS"},"data":[0,0,0,0,0,0,0,0,0,0,0,0,0,0,0,0,0,0,0,0,0,0,0,0,0,0,0,0,0,0,0,0,0,0,0,0,0,0,0,0,0,0,0,0,0,0,0,0,0,0,0,0,0,0,0,0,0,0,2.8222,2.8223,0,2.8283,2.8283,2.8284,2.8278,2.8277,2.8276,2.8275,2.8335,2.8337,2.834,0,0,0,0,0,0,0,0,0,0,0,0,0,2.8103,2.8105,2.8222,2.8223,2.8224,2.8283,2.8283,2.8284,2.8278,2.8277,2.8275,2.8274,2.8334,2.8337,2.834,0,0,0,0,0,0,0,0,0,0,0,0,0,2.8158,2.8106,2.8222,2.8228,2.8229,2.8282,2.8283,2.8284,2.8278,2.8276,2.8275,2.8274,2.8333,2.8337,2.8341,2.8392,0,0,2.8352,2.8354,0,0,0,0,0,0,0,0,2.8155,2.8163,2.8226,2.8227,2.8229,2.8271,2.8264,2.8321,2.8278,2.8259,2.8275,2.8273,2.8315,2.832,2.8334,2.8395,2.8398,2.8352,2.8355,2.8356,2.8357,0,0,0,0,0,0,0,2.8151,2.816,2.8246,2.8227,2.8229,2.8228,2.8234,2.8274,2.8294,2.8261,2.826,2.8268,2.8315,2.8331,2.8336,2.8398,2.8352,2.8356,2.8358,2.8359,2.8509,2.8511,0,0,0,0,0,0,2.8146,2.8157,2.8244,2.8248,2.8188,2.8231,2.8238,2.8259,2.8294,2.8298,2.8269,2.8267,2.8325,2.8331,2.8338,2.8403,2.8356,2.836,2.8362,2.8507,2.8509,2.8511,0,0,0,0,0,0,2.8144,2.8154,2.8242,2.8203,2.8214,2.8235,2.8258,2.8261,2.8276,2.83,2.8303,2.8281,2.8324,2.8333,2.838,2.8405,2.8361,2.8365,2.8505,2.8508,2.851,2.8533,0,0,0,0,0,0,2.814,2.8153,2.8172,2.8203,2.8216,2.8282,2.826,2.8263,2.8283,2.8281,2.8312,2.8316,2.8324,2.8374,2.8384,2.841,2.8368,2.8503,2.8506,2.8509,2.853,2.8536,2.8541,0,0,0,0,0,2.8136,2.8175,2.8173,2.8184,2.824,2.8284,2.8291,2.83,2.8285,2.8305,2.8321,2.8315,2.8401,2.8379,2.8389,2.8417,2.8501,2.8505,2.8509,2.8528,2.8535,2.8541,0,0,0,0,0,0,2.8145,2.8179,2.8177,2.8227,2.8253,2.8282,2.8308,2.8306,2.8336,2.8333,2.8342,2.8349,2.8398,2.8412,2.8387,2.8471,2.8449,2.8455,2.846,2.8467,2.8472,2.8468,2.8371,0,0,0,0,0,2.8153,2.8186,2.8214,2.8255,2.8268,2.8286,2.8305,2.831,2.8337,2.8347,2.8366,2.8392,2.8426,2.8447,2.8478,2.8532,2.854,2.8557,2.8562,2.8567,2.8572,2.8605,2.8614,2.8524,2.8524,2.8524,0,0,2.817,2.8192,2.8212,2.8258,2.8278,2.8313,2.8295,2.8331,2.8357,2.8352,2.8399,2.8414,2.8444,2.8496,2.852,2.8509,2.8599,2.8572,2.8575,2.8578,2.861,2.8619,2.8626,2.8527,2.8526,2.8526,0,0,2.8218,2.8237,2.8276,2.8298,2.8329,2.8342,2.8351,2.8382,2.8392,2.844,2.8438,2.8469,2.8525,2.8548,2.8566,2.8628,2.8625,2.8638,2.8667,2.8699,2.8706,2.8713,2.8737,2.8745,2.8643,2.8643,2.8643,0,2.8234,2.8286,2.8296,2.8334,2.8355,2.8354,2.8394,2.8415,2.8455,2.847,2.8458,2.8532,2.8551,2.861,2.8626,2.864,2.8653,2.8634,2.8705,2.8711,2.8717,2.874,2.8749,2.8645,2.8645,2.8645,2.8644,0,2.8306,2.8342,2.837,2.8411,2.8435,2.8474,2.8491,2.8514,2.8518,2.8532,2.8582,2.8606,2.8645,2.8659,2.8661,2.8719,2.8712,2.8702,2.8681,2.8727,2.8749,2.8758,2.8647,2.8647,2.8646,2.8646,0,0,2.8359,2.8408,2.8418,2.8438,2.8475,2.8504,2.8544,2.8583,2.8604,2.8633,2.8668,2.8717,2.871,2.8731,2.8737,2.8765,2.8816,2.8753,2.8754,2.8765,2.8884,2.8893,2.8903,2.8814,2.8816,2.8817,2.8883,0,2.8412,2.8484,2.8495,2.8558,2.8594,2.8595,2.8631,2.8658,2.8673,2.8706,2.8722,2.8758,2.8744,2.8758,2.8786,2.8804,2.8841,2.8799,2.8848,2.885,2.8842,2.8914,2.8922,2.8982,2.8891,2.8893,2.8894,0,2.8483,2.8516,2.8583,2.8619,2.8635,2.8666,2.8705,2.8735,2.8767,2.8777,2.8803,2.8807,2.885,2.8827,2.8888,2.886,2.8881,2.8893,2.8896,2.8901,2.8875,2.8923,2.9001,2.9011,2.8907,2.8906,2.8905,0,2.8518,2.8579,2.8628,2.8645,2.8688,2.8711,2.8729,2.876,2.8784,2.8818,2.8834,2.8872,2.8893,2.8923,2.8937,2.8918,2.8998,2.8976,2.9009,2.9008,2.9025,2.9024,2.911,2.9037,2.9037,2.9036,2.9036,0,2.8577,2.8618,2.8645,2.8675,2.8723,2.8737,2.8784,2.8802,2.883,2.8865,2.8868,2.8901,2.8918,2.8953,2.8965,2.9015,2.9024,2.9034,2.9037,2.9035,2.9034,2.9049,2.9046,2.9039,2.9038,2.9038,2.9037,0,2.8624,2.8643,2.8697,2.8734,2.8745,2.8778,2.8811,2.8841,2.8857,2.8901,2.8913,2.8938,2.8981,2.8998,2.905,2.9058,2.9117,2.9115,2.9106,2.9108,2.914,2.9138,2.9239,2.9255,2.917,2.9171,2.9172,0,2.866,2.8693,2.8735,2.8759,2.8779,2.8817,2.8843,2.8859,2.8885,2.8927,2.8953,2.8996,2.9031,2.9099,2.9122,2.9163,2.9164,2.9197,2.917,2.9168,2.9167,2.9166,2.917,2.9202,2.9203,2.9203,2.9204,0,2.8724,2.8733,2.877,2.8811,2.8842,2.8875,2.8907,2.8927,2.8948,2.8978,2.9023,2.905,2.9105,2.9148,2.9191,2.9211,2.9212,2.9212,2.9223,2.9221,2.9215,2.9221,2.9122,2.921,2.9209,2.9209,2.9208,2.9208,2.8768,2.8799,2.8834,2.8876,2.8903,2.8934,2.8965,2.8987,2.9024,2.9071,2.9078,2.9127,2.9161,2.9219,2.9241,2.928,2.9272,2.9286,2.929,2.9293,2.9297,2.9209,2.9288,2.9287,2.9287,2.9287,2.9287,0,2.8835,2.8858,2.8897,2.8943,2.8977,2.8976,2.9013,2.9041,2.9084,2.9117,2.9153,2.9206,2.9249,2.9277,2.9321,2.9347,2.9349,2.9358,2.9357,2.9363,2.93,2.9288,2.9356,2.9356,2.9356,2.9356,2.9356,2.9356,2.8873,2.8925,2.8939,2.9006,2.903,2.9078,2.91,2.9129,2.9156,2.9216,2.9252,2.9271,2.9303,2.935,2.939,2.9398,2.9414,2.9425,2.9432,2.9373,2.9366,2.9359,2.9348,2.9428,2.9428,2.9491,2.9492,2.9492]}]]